[[{"header":{"parameterUnit":"m.s-1","parameterCategory":1,"la1":30.2991,"la2":30.254,"lo1":-89.0895,"lo2":-89.0444,"dy":0.0017,"dx":0.0017,"nx":28,"ny":28,"refTime":"2023-09-03T21:00:00:Z","depth":0,"parameterNumber":2,"parameterNumberName":"U-component_of_WINDS"},"data":[0,0,0,0,0,0,0,0,0,0,0,0,0,0,0,0,0,0,0,0,0,0,0,0,0,0,0,0,0,0,0,0,0,0,0,0,0,0,0,0,0,0,0,0,0,0,0,0,0,0,0,0,0,0,0,0,0,0,-2.6313,-2.6314,0,-2.6377,-2.6378,-2.6378,-2.6341,-2.634,-2.6338,-2.6336,-2.6403,-2.6406,-2.641,0,0,0,0,0,0,0,0,0,0,0,0,0,-2.6162,-2.6165,-2.6313,-2.6314,-2.6315,-2.6377,-2.6378,-2.6379,-2.6342,-2.634,-2.6337,-2.6335,-2.6402,-2.6406,-2.641,0,0,0,0,0,0,0,0,0,0,0,0,0,-2.6227,-2.6166,-2.6313,-2.6304,-2.6304,-2.6377,-2.6378,-2.6379,-2.6342,-2.6339,-2.6337,-2.6334,-2.6401,-2.6406,-2.6411,-2.6497,0,0,-2.6427,-2.6429,0,0,0,0,0,0,0,0,-2.6223,-2.6232,-2.6304,-2.6305,-2.6305,-2.6348,-2.6349,-2.6419,-2.6343,-2.6328,-2.6336,-2.6333,-2.6387,-2.6393,-2.6411,-2.65,-2.6503,-2.6427,-2.643,-2.6433,-2.6434,0,0,0,0,0,0,0,-2.6219,-2.6229,-2.6338,-2.6306,-2.6306,-2.6297,-2.6303,-2.6362,-2.6372,-2.6329,-2.6326,-2.6334,-2.6387,-2.6406,-2.6413,-2.6504,-2.6427,-2.6432,-2.6435,-2.6437,-2.6669,-2.6672,0,0,0,0,0,0,-2.6214,-2.6226,-2.6336,-2.634,-2.6256,-2.6302,-2.6309,-2.6337,-2.6371,-2.6374,-2.6336,-2.6332,-2.6399,-2.6407,-2.6415,-2.6519,-2.6432,-2.6437,-2.644,-2.6666,-2.6669,-2.6673,0,0,0,0,0,0,-2.6211,-2.6225,-2.6334,-2.6282,-2.6296,-2.6308,-2.6339,-2.634,-2.6359,-2.6377,-2.6379,-2.6355,-2.6397,-2.6408,-2.6477,-2.6521,-2.644,-2.6444,-2.6662,-2.6667,-2.6671,-2.6729,0,0,0,0,0,0,-2.6207,-2.6224,-2.6256,-2.6283,-2.6299,-2.6395,-2.6342,-2.6343,-2.6368,-2.6363,-2.6394,-2.6397,-2.6396,-2.647,-2.6482,-2.6527,-2.6448,-2.6658,-2.6664,-2.667,-2.6723,-2.6735,-2.6745,0,0,0,0,0,-2.6202,-2.627,-2.6258,-2.6271,-2.6339,-2.6397,-2.6406,-2.6403,-2.6372,-2.6405,-2.6416,-2.6396,-2.6514,-2.6477,-2.6491,-2.6538,-2.6656,-2.6663,-2.6669,-2.6718,-2.6732,-2.6744,0,0,0,0,0,0,-2.6247,-2.6273,-2.626,-2.6339,-2.6366,-2.6391,-2.6432,-2.6418,-2.6455,-2.6448,-2.6443,-2.6451,-2.6524,-2.6537,-2.6496,-2.6624,-2.658,-2.659,-2.6612,-2.6626,-2.6637,-2.6633,-2.6453,0,0,0,0,0,-2.6267,-2.6311,-2.6331,-2.6399,-2.6413,-2.642,-2.6445,-2.6441,-2.6469,-2.648,-2.6497,-2.6526,-2.6569,-2.6598,-2.6639,-2.6724,-2.6732,-2.6764,-2.6774,-2.6783,-2.6792,-2.684,-2.6855,-2.6695,-2.6695,-2.6695,0,0,-2.6307,-2.6326,-2.6354,-2.6408,-2.6429,-2.6476,-2.643,-2.6482,-2.6517,-2.6488,-2.6555,-2.6569,-2.66,-2.6679,-2.6714,-2.6693,-2.6838,-2.6792,-2.6799,-2.6803,-2.6849,-2.6864,-2.6877,-2.67,-2.6699,-2.6698,0,0,-2.6404,-2.6423,-2.6482,-2.6503,-2.6535,-2.654,-2.6554,-2.6581,-2.6589,-2.6656,-2.6636,-2.6678,-2.6753,-2.6777,-2.6799,-2.6907,-2.689,-2.692,-2.6978,-2.7024,-2.7037,-2.7048,-2.7088,-2.7103,-2.6929,-2.6929,-2.6929,0,-2.645,-2.652,-2.6514,-2.6567,-2.6592,-2.6568,-2.6629,-2.665,-2.6694,-2.6712,-2.6687,-2.6782,-2.6801,-2.6886,-2.6912,-2.693,-2.6947,-2.6917,-2.7036,-2.7047,-2.7057,-2.7095,-2.711,-2.6933,-2.6933,-2.6932,-2.6932,0,-2.6575,-2.6624,-2.6668,-2.6711,-2.6741,-2.6797,-2.6801,-2.6832,-2.6825,-2.6833,-2.6902,-2.6925,-2.6971,-2.699,-2.6984,-2.7074,-2.706,-2.7036,-2.6992,-2.7076,-2.7112,-2.7126,-2.6938,-2.6937,-2.6936,-2.6935,0,0,-2.6704,-2.6743,-2.6759,-2.6779,-2.6813,-2.6851,-2.6907,-2.6952,-2.6979,-2.701,-2.7058,-2.7123,-2.71,-2.7126,-2.7121,-2.7162,-2.7248,-2.7133,-2.7133,-2.7155,-2.7352,-2.7371,-2.7388,-2.7237,-2.724,-2.7242,-2.735,0,-2.6804,-2.6902,-2.6899,-2.699,-2.7036,-2.7014,-2.7063,-2.709,-2.7099,-2.714,-2.715,-2.7196,-2.7162,-2.7178,-2.7217,-2.723,-2.7288,-2.7221,-2.7283,-2.7285,-2.7277,-2.7407,-2.7427,-2.7528,-2.7364,-2.7366,-2.7368,0,-2.6935,-2.6971,-2.7067,-2.7095,-2.7114,-2.7158,-2.72,-2.7238,-2.7269,-2.7272,-2.7301,-2.7291,-2.7349,-2.7303,-2.7384,-2.7339,-2.7364,-2.7374,-2.7378,-2.7384,-2.7332,-2.7418,-2.756,-2.7575,-2.7389,-2.7388,-2.7386,0,-2.7021,-2.7093,-2.716,-2.7177,-2.7211,-2.7243,-2.7259,-2.7286,-2.7314,-2.735,-2.7369,-2.7411,-2.7435,-2.7469,-2.7472,-2.7437,-2.7554,-2.7508,-2.756,-2.7561,-2.7587,-2.7585,-2.7736,-2.7601,-2.76,-2.76,-2.76,0,-2.7134,-2.7194,-2.7199,-2.7241,-2.7308,-2.7304,-2.7371,-2.7383,-2.7408,-2.7453,-2.7436,-2.7479,-2.7478,-2.7522,-2.7524,-2.7592,-2.7602,-2.7608,-2.7608,-2.761,-2.761,-2.7627,-2.7621,-2.7604,-2.7603,-2.7602,-2.7602,0,-2.7242,-2.7247,-2.7319,-2.7346,-2.7354,-2.7403,-2.7426,-2.7466,-2.7473,-2.753,-2.7543,-2.7555,-2.7605,-2.7611,-2.7669,-2.7671,-2.7753,-2.7745,-2.7743,-2.7742,-2.7795,-2.7791,-2.7963,-2.7987,-2.7835,-2.7837,-2.7838,0,-2.7315,-2.736,-2.7392,-2.7421,-2.7438,-2.7484,-2.7512,-2.7511,-2.7541,-2.7579,-2.7615,-2.7664,-2.7703,-2.7785,-2.7799,-2.7845,-2.7838,-2.7896,-2.7845,-2.7847,-2.7841,-2.7839,-2.7845,-2.7906,-2.7908,-2.7909,-2.791,0,-2.7444,-2.7445,-2.7486,-2.7528,-2.7562,-2.7596,-2.7627,-2.7651,-2.7654,-2.7689,-2.774,-2.777,-2.783,-2.788,-2.7924,-2.7941,-2.7927,-2.7926,-2.7941,-2.7944,-2.7942,-2.7945,-2.7772,-2.7922,-2.7921,-2.792,-2.7919,-2.7919,-2.7538,-2.7578,-2.7607,-2.7653,-2.7677,-2.7707,-2.7746,-2.7759,-2.7801,-2.785,-2.7846,-2.7903,-2.7934,-2.7992,-2.8013,-2.8058,-2.8039,-2.806,-2.8066,-2.8072,-2.8078,-2.7933,-2.8066,-2.8066,-2.8066,-2.8065,-2.8065,0,-2.7667,-2.7685,-2.7728,-2.7772,-2.781,-2.7792,-2.7826,-2.7858,-2.7909,-2.7938,-2.7977,-2.8037,-2.8084,-2.8103,-2.815,-2.8183,-2.8178,-2.8196,-2.8194,-2.8199,-2.8091,-2.8074,-2.8199,-2.8199,-2.8199,-2.8199,-2.8199,-2.8199,-2.7739,-2.7807,-2.7811,-2.7891,-2.7908,-2.7964,-2.7985,-2.8013,-2.8037,-2.8104,-2.8144,-2.8155,-2.8181,-2.823,-2.8274,-2.8278,-2.8297,-2.8318,-2.832,-2.822,-2.8206,-2.8193,-2.8177,-2.8322,-2.8322,-2.8424,-2.8425,-2.8425]},{"header":{"parameterUnit":"m.s-1","parameterCategory":1,"la1":30.2991,"la2":30.254,"lo1":-89.0895,"lo2":-89.0444,"dy":0.0017,"dx":0.0017,"nx":28,"ny":28,"refTime":"2023-09-03T21:00:00:Z","depth":0,"parameterNumber":3,"parameterNumberName":"V-component_of_WINDS"},"data":[0,0,0,0,0,0,0,0,0,0,0,0,0,0,0,0,0,0,0,0,0,0,0,0,0,0,0,0,0,0,0,0,0,0,0,0,0,0,0,0,0,0,0,0,0,0,0,0,0,0,0,0,0,0,0,0,0,0,-1.778,-1.778,0,-1.7789,-1.7789,-1.779,-1.7772,-1.7772,-1.7771,-1.777,-1.7778,-1.7779,-1.778,0,0,0,0,0,0,0,0,0,0,0,0,0,-1.7747,-1.7747,-1.778,-1.778,-1.7781,-1.7789,-1.7789,-1.779,-1.7772,-1.7771,-1.7771,-1.777,-1.7778,-1.7779,-1.778,0,0,0,0,0,0,0,0,0,0,0,0,0,-1.7759,-1.7747,-1.778,-1.7773,-1.7772,-1.7789,-1.7789,-1.779,-1.7772,-1.7771,-1.7771,-1.777,-1.7778,-1.7779,-1.778,-1.7804,0,0,-1.7784,-1.7784,0,0,0,0,0,0,0,0,-1.7758,-1.776,-1.7774,-1.7774,-1.7773,-1.7779,-1.778,-1.7794,-1.7773,-1.7772,-1.777,-1.7769,-1.7779,-1.778,-1.7784,-1.7805,-1.7805,-1.7784,-1.7784,-1.7785,-1.7785,0,0,0,0,0,0,0,-1.7757,-1.776,-1.7784,-1.7774,-1.7774,-1.7769,-1.777,-1.7783,-1.778,-1.7772,-1.7771,-1.7772,-1.7779,-1.7783,-1.7784,-1.7805,-1.7784,-1.7785,-1.7785,-1.7786,-1.7846,-1.7847,0,0,0,0,0,0,-1.7758,-1.7759,-1.7784,-1.7784,-1.7763,-1.777,-1.7771,-1.7778,-1.778,-1.778,-1.7773,-1.7772,-1.7781,-1.7782,-1.7784,-1.7812,-1.7785,-1.7786,-1.7787,-1.7845,-1.7846,-1.7847,0,0,0,0,0,0,-1.7757,-1.776,-1.7783,-1.7771,-1.7774,-1.7772,-1.7779,-1.7778,-1.7782,-1.7781,-1.778,-1.7778,-1.7781,-1.7782,-1.7799,-1.7812,-1.7786,-1.7787,-1.7844,-1.7845,-1.7846,-1.7869,0,0,0,0,0,0,-1.7756,-1.776,-1.7769,-1.7772,-1.7775,-1.7799,-1.778,-1.7779,-1.7784,-1.7782,-1.7785,-1.7785,-1.778,-1.7798,-1.78,-1.7813,-1.7788,-1.7843,-1.7844,-1.7846,-1.7867,-1.7871,-1.7874,0,0,0,0,0,-1.7755,-1.7775,-1.777,-1.7773,-1.7787,-1.78,-1.7801,-1.7796,-1.7786,-1.7795,-1.7794,-1.7785,-1.781,-1.78,-1.7802,-1.7816,-1.7842,-1.7844,-1.7846,-1.7866,-1.787,-1.7874,0,0,0,0,0,0,-1.7774,-1.7775,-1.777,-1.7791,-1.7796,-1.7797,-1.7809,-1.7801,-1.7808,-1.7806,-1.7799,-1.7799,-1.7818,-1.7818,-1.7806,-1.7839,-1.7824,-1.7827,-1.7838,-1.7843,-1.7846,-1.7846,-1.7789,0,0,0,0,0,-1.7781,-1.7792,-1.7792,-1.7812,-1.7814,-1.7811,-1.7817,-1.7812,-1.7816,-1.7818,-1.7818,-1.7822,-1.783,-1.7836,-1.7845,-1.7867,-1.7867,-1.7878,-1.7881,-1.7884,-1.7887,-1.7898,-1.7903,-1.7854,-1.7854,-1.7854,0,0,-1.7796,-1.7797,-1.7805,-1.7816,-1.7818,-1.783,-1.7813,-1.7825,-1.7833,-1.7819,-1.7835,-1.7836,-1.7839,-1.7859,-1.7868,-1.786,-1.79,-1.7887,-1.7889,-1.789,-1.7901,-1.7905,-1.791,-1.7855,-1.7855,-1.7855,0,0,-1.7827,-1.783,-1.7846,-1.7849,-1.7854,-1.7851,-1.7855,-1.7857,-1.7857,-1.7873,-1.7863,-1.7872,-1.7888,-1.7891,-1.7894,-1.7926,-1.7918,-1.7929,-1.7948,-1.796,-1.7963,-1.7967,-1.7978,-1.7982,-1.7932,-1.7932,-1.7932,0,-1.7844,-1.7861,-1.7855,-1.7869,-1.7873,-1.7861,-1.7877,-1.788,-1.7887,-1.7891,-1.7882,-1.7901,-1.7903,-1.7923,-1.7931,-1.7934,-1.7938,-1.7929,-1.7963,-1.7967,-1.797,-1.7981,-1.7985,-1.7933,-1.7933,-1.7933,-1.7933,0,-1.7882,-1.7894,-1.7906,-1.7913,-1.7919,-1.7934,-1.793,-1.7936,-1.7931,-1.793,-1.7946,-1.7947,-1.7955,-1.796,-1.7955,-1.7979,-1.7974,-1.7965,-1.795,-1.7976,-1.7986,-1.799,-1.7935,-1.7934,-1.7934,-1.7934,0,0,-1.7926,-1.793,-1.7935,-1.7938,-1.7941,-1.795,-1.7964,-1.7972,-1.7978,-1.7983,-1.7994,-1.8007,-1.7998,-1.8002,-1.7997,-1.8007,-1.8033,-1.7996,-1.7996,-1.8003,-1.8059,-1.8067,-1.8072,-1.8027,-1.8028,-1.8028,-1.8059,0,-1.7958,-1.7982,-1.7977,-1.8,-1.8011,-1.7999,-1.8011,-1.8015,-1.8013,-1.8022,-1.802,-1.803,-1.8017,-1.802,-1.8029,-1.8028,-1.8044,-1.8025,-1.8037,-1.8037,-1.8037,-1.8077,-1.8085,-1.8114,-1.8063,-1.8064,-1.8064,0,-1.7998,-1.8005,-1.8029,-1.8031,-1.8035,-1.8046,-1.8053,-1.8062,-1.8065,-1.8063,-1.8068,-1.806,-1.8074,-1.8058,-1.8076,-1.8063,-1.8068,-1.8068,-1.8069,-1.807,-1.8053,-1.8079,-1.8123,-1.8127,-1.807,-1.807,-1.8069,0,-1.8028,-1.8043,-1.806,-1.8063,-1.8065,-1.8073,-1.8074,-1.8077,-1.8082,-1.8088,-1.8091,-1.8098,-1.8102,-1.8108,-1.8102,-1.8092,-1.8121,-1.8105,-1.812,-1.812,-1.8127,-1.8126,-1.8172,-1.8129,-1.8129,-1.8129,-1.8129,0,-1.8063,-1.8079,-1.8073,-1.8084,-1.81,-1.8094,-1.8111,-1.8111,-1.8113,-1.8123,-1.8113,-1.8122,-1.8115,-1.8123,-1.8119,-1.8134,-1.8136,-1.8135,-1.8134,-1.8136,-1.8136,-1.8139,-1.8137,-1.813,-1.813,-1.813,-1.813,0,-1.81,-1.8097,-1.8114,-1.8115,-1.8116,-1.8128,-1.8129,-1.8138,-1.8136,-1.8148,-1.8151,-1.8147,-1.8157,-1.8152,-1.8162,-1.8159,-1.8179,-1.8175,-1.8178,-1.8177,-1.8192,-1.819,-1.8241,-1.8247,-1.82,-1.8201,-1.8201,0,-1.8123,-1.8135,-1.8137,-1.8143,-1.8145,-1.8155,-1.816,-1.8154,-1.816,-1.8164,-1.8173,-1.8182,-1.8188,-1.8204,-1.8202,-1.8209,-1.8205,-1.8222,-1.8206,-1.8208,-1.8205,-1.8205,-1.8206,-1.8226,-1.8226,-1.8227,-1.8227,0,-1.8164,-1.8162,-1.817,-1.8178,-1.8184,-1.819,-1.8195,-1.82,-1.8194,-1.8201,-1.821,-1.8216,-1.8226,-1.8234,-1.824,-1.8241,-1.8233,-1.8232,-1.8236,-1.8238,-1.8239,-1.8239,-1.8187,-1.8231,-1.823,-1.823,-1.823,-1.823,-1.8194,-1.8204,-1.8207,-1.8217,-1.822,-1.8224,-1.8233,-1.8232,-1.824,-1.8248,-1.8244,-1.8255,-1.8258,-1.8265,-1.8267,-1.8276,-1.8269,-1.8274,-1.8276,-1.8277,-1.8279,-1.8238,-1.8277,-1.8277,-1.8276,-1.8276,-1.8276,0,-1.8235,-1.8236,-1.8245,-1.8252,-1.8259,-1.8251,-1.8256,-1.8263,-1.8273,-1.8276,-1.8283,-1.8294,-1.8302,-1.8301,-1.8308,-1.8315,-1.8311,-1.8317,-1.8317,-1.8317,-1.8285,-1.8281,-1.832,-1.832,-1.832,-1.832,-1.832,-1.832,-1.8257,-1.8273,-1.8271,-1.8289,-1.829,-1.8301,-1.8304,-1.8308,-1.8311,-1.8324,-1.8331,-1.833,-1.8331,-1.8339,-1.8346,-1.8345,-1.8348,-1.8355,-1.8353,-1.8324,-1.8319,-1.8315,-1.8311,-1.8356,-1.8356,-1.8385,-1.8385,-1.8385]}]]